TimeMDT,TemperatureF,Dew PointF,Humidity,Sea Level PressureIn,VisibilityMPH,Wind Direction,Wind SpeedMPH,Gust SpeedMPH,PrecipitationIn,Events,Conditions,WindDirDegrees,DateUTC
12:53 AM,33.1,30.0,89,30.05,10.0,WNW,3.5,-,N/A,,Clear,300,2012-10-31 06:53:00
1:53 AM,32.0,28.0,85,30.05,10.0,NW,4.6,-,N/A,,Clear,310,2012-10-31 07:53:00
2:53 AM,34.0,28.0,79,30.04,10.0,NW,4.6,-,N/A,,Clear,310,2012-10-31 08:53:00
3:53 AM,33.1,28.0,82,30.02,10.0,NW,4.6,-,N/A,,Clear,310,2012-10-31 09:53:00
4:53 AM,35.1,28.0,76,30.02,10.0,NW,3.5,-,N/A,,Clear,310,2012-10-31 10:53:00
5:53 AM,39.0,27.0,62,30.02,10.0,WNW,4.6,-,N/A,,Clear,290,2012-10-31 11:53:00
6:53 AM,39.0,28.0,65,30.05,10.0,NW,4.6,-,N/A,,Clear,310,2012-10-31 12:53:00
7:53 AM,43.0,27.0,53,30.05,10.0,Calm,Calm,-,N/A,,Clear,0,2012-10-31 13:53:00
8:53 AM,50.0,30.9,48,30.06,10.0,WNW,3.5,-,N/A,,Clear,300,2012-10-31 14:53:00
9:53 AM,57.0,28.9,34,30.03,10.0,Calm,Calm,-,N/A,,Clear,0,2012-10-31 15:53:00
10:53 AM,60.1,28.0,30,30.04,10.0,WNW,9.2,-,N/A,,Clear,290,2012-10-31 16:53:00
11:53 AM,61.0,30.0,31,30.04,10.0,NW,9.2,18.4,N/A,,Clear,310,2012-10-31 17:53:00
12:53 PM,62.1,30.0,30,30.03,10.0,West,9.2,-,N/A,,Clear,270,2012-10-31 18:53:00
1:53 PM,63.0,28.9,28,30.02,10.0,WNW,10.4,21.9,N/A,,Scattered Clouds,300,2012-10-31 19:53:00
2:53 PM,64.0,30.0,28,30.01,10.0,WNW,10.4,21.9,N/A,,Overcast,290,2012-10-31 20:53:00
3:53 PM,62.1,28.9,29,30.03,10.0,West,12.7,19.6,N/A,,Clear,280,2012-10-31 21:53:00
4:53 PM,60.1,28.9,31,30.04,10.0,WNW,8.1,-,N/A,,Clear,290,2012-10-31 22:53:00
5:53 PM,55.0,28.9,37,30.05,10.0,WNW,5.8,-,N/A,,Clear,290,2012-10-31 23:53:00
6:53 PM,51.1,28.9,43,30.08,10.0,Calm,Calm,-,N/A,,Clear,0,2012-11-01 00:53:00
7:53 PM,50.0,30.0,46,30.07,10.0,Calm,Calm,-,N/A,,Clear,0,2012-11-01 01:53:00
8:53 PM,39.9,28.9,65,30.08,10.0,Calm,Calm,-,N/A,,Clear,0,2012-11-01 02:53:00
9:53 PM,37.0,28.0,70,30.05,10.0,North,3.5,-,N/A,,Clear,10,2012-11-01 03:53:00
10:53 PM,36.0,28.0,73,30.04,10.0,NNW,3.5,-,N/A,,Clear,340,2012-11-01 04:53:00
11:53 PM,36.0,28.9,76,30.02,10.0,NW,3.5,-,N/A,,Clear,310,2012-11-01 05:53:00